Location: Limoges
(45.8500°N, 1.2500°E)
Time: 02:25:59
(UTC+02:00)

ISS - Pass Details

Date: 25 September 2021
Orbit: 417 x 423 km, 51.6° (Epoch: 21 October)

Event Time Altitude Azimuth Distance (km) Brightness Sun altitude
Rises 21:42:28 0° 291° (WNW) 2,365 1.7 -20.6°
Reaches altitude 10° 21:44:43 10° 302° (WNW) 1,502 0.2 -21.0°
Maximum altitude 21:47:45 30° 6° (N) 776 -2.3 -21.5°
Enters shadow 21:47:47 30° 8° (N) 776 -2.3 -21.5°
